Meath Environmental Platform

Observations for Trim Patrick St

Time AQI Temp °C Hum % Pres Pa CO μg/m³ H₂S μg/m³ NO μg/m³ NO₂ μg/m³ O₃ μg/m³ SO₂ μg/m³ PM1 μg/m³ PM2.5 μg/m³ PM10 μg/m³
Saturday 8 August 2026
10:34 1 24.7 47 69,074 0 0 1.93 9.34 63.2 6.36 2 7.39 8.12
10:33 1 24.7 47 69,078 0 0 1.88 10.92 68.61 6.31 2 6.6 7.26
10:32 1 24.7 47 69,051 0 0 1.88 10.24 65.84 6.09 2.86 7.37 8.11
10:31 1 24.8 47 69,051 0 0 1.81 9.99 63.22 6.32 2.86 7.39 8.12
10:30 1 24.8 47 69,047 0 0 1.89 10.74 64.24 6.34 2 7.39 8.12
10:29 1 24.7 47 69,069 0 0 1.78 10.04 56.23 6.4 2 7.37 8.11
10:28 1 24.8 47 69,072 0 0 1.89 11.08 65.47 6.01 3.71 8.94 9.83
10:27 1 24.8 47 69,076 0 0 1.94 9.7 63.08 6.65 2 7.39 8.12
10:26 1 24.8 47 69,084 0 0 1.9 9.73 66.12 6.35 2 7.39 8.12
10:25 1 24.8 46 69,065 0 0 1.83 9.63 63.98 6.18 2 6.66 7.33
10:24 1 24.8 46 69,069 0 0 1.9 8.41 59 5.93 2 6.65 7.31
10:23 1 24.9 46 69,071 0 0 1.78 9.49 66.23 6.56 2.86 8.21 9.03
10:22 1 24.9 46 69,076 0 0 1.77 7.06 58.95 6.32 2 6.67 7.33
10:21 1 24.9 46 69,059 0 0 1.86 8.88 64.64 5.74 2.86 7.43 8.17
10:20 1 24.9 46 69,065 0 0 1.82 6.38 55.97 6.3 2 6.65 7.32
10:19 1 25 46 69,041 0 0 1.74 7.31 59.81 5.88 2.86 7.46 8.21
10:18 1 25 46 69,041 0 0 1.78 7.03 56.47 6.25 2 6.67 7.33
10:17 1 25 46 69,041 0 0 1.79 4.46 57.21 6.26 2 6.7 7.37
10:16 1 25 45 69,045 0 0 1.74 7.95 61.1 5.3 3.71 9.05 9.96
10:15 1 25 46 69,043 0 0 1.85 2.77 29.43 4.9 2.86 7.46 8.2